Time,TemperatureF,DewpointF,PressureIn,WindDirection,WindDirectionDegrees,WindSpeedMPH,WindSpeedGustMPH,Humidity,HourlyPrecipIn,Conditions,Clouds,dailyrainin,SoftwareType,DateUTC
2013-04-26 00:00:00,62.7,52.8,30.22,SE,141,1.0,1.0,70,0.00,,,0.00,Wunderground v.1.15,2013-04-26 05:00:00,
2013-04-26 00:05:00,62.6,52.7,30.22,SE,124,1.0,1.0,70,0.00,,,0.00,Wunderground v.1.15,2013-04-26 05:05:00,
2013-04-26 00:14:00,62.6,52.7,30.21,SE,127,0.0,1.0,70,0.00,,,0.00,Wunderground v.1.15,2013-04-26 05:14:00,
2013-04-26 00:20:00,62.5,52.2,30.21,SE,139,0.0,0.0,69,0.00,,,0.00,Wunderground v.1.15,2013-04-26 05:20:00,
2013-04-26 00:29:00,62.5,52.2,30.21,SE,138,0.0,0.0,69,0.00,,,0.00,Wunderground v.1.15,2013-04-26 05:29:00,
2013-04-26 00:40:00,62.5,51.8,30.20,SE,131,0.0,0.0,68,0.00,,,0.00,Wunderground v.1.15,2013-04-26 05:40:00,
2013-04-26 00:44:00,62.5,52.2,30.21,SE,145,0.0,0.0,69,0.00,,,0.00,Wunderground v.1.15,2013-04-26 05:44:00,
2013-04-26 00:55:00,62.5,52.2,30.20,ESE,109,0.0,0.0,69,0.00,,,0.00,Wunderground v.1.15,2013-04-26 05:55:00,
2013-04-26 01:04:00,62.5,52.6,30.19,SE,126,1.0,2.0,70,0.00,,,0.00,Wunderground v.1.15,2013-04-26 06:04:00,
2013-04-26 01:15:00,62.5,53.3,30.19,ESE,122,1.0,1.0,72,0.00,,,0.00,Wunderground v.1.15,2013-04-26 06:15:00,
2013-04-26 01:24:00,62.4,54.4,30.18,East,94,1.0,5.0,75,0.00,,,0.00,Wunderground v.1.15,2013-04-26 06:24:00,
2013-04-26 01:30:00,62.3,53.9,30.18,ESE,123,1.0,1.0,74,0.00,,,0.00,Wunderground v.1.15,2013-04-26 06:30:00,
2013-04-26 01:39:00,62.3,54.3,30.18,ESE,113,0.0,0.0,75,0.00,,,0.00,Wunderground v.1.15,2013-04-26 06:39:00,
2013-04-26 01:45:00,62.2,53.8,30.18,West,278,0.0,0.0,74,0.00,,,0.00,Wunderground v.1.15,2013-04-26 06:45:00,
2013-04-26 01:54:00,62.2,54.2,30.18,East,100,0.0,0.0,75,0.00,,,0.00,Wunderground v.1.15,2013-04-26 06:54:00,
2013-04-26 02:05:00,62.2,54.9,30.17,ESE,117,0.0,1.0,77,0.00,,,0.00,Wunderground v.1.15,2013-04-26 07:05:00,
2013-04-26 02:14:00,62.1,55.2,30.17,ESE,110,1.0,1.0,78,0.00,,,0.00,Wunderground v.1.15,2013-04-26 07:14:00,
2013-04-26 02:20:00,62.0,55.4,30.17,NW,304,0.0,0.0,79,0.00,,,0.00,Wunderground v.1.15,2013-04-26 07:20:00,
2013-04-26 02:29:00,62.0,56.1,30.16,ESE,120,0.0,2.0,81,0.00,,,0.00,Wunderground v.1.15,2013-04-26 07:29:00,
2013-04-26 02:40:00,61.7,56.5,30.16,East,98,1.0,1.0,83,0.00,,,0.00,Wunderground v.1.15,2013-04-26 07:40:00,
2013-04-26 02:49:00,61.5,56.6,30.16,East,98,1.0,1.0,84,0.00,,,0.00,Wunderground v.1.15,2013-04-26 07:49:00,
2013-04-26 02:55:00,61.4,56.8,30.16,East,98,1.0,1.0,85,0.00,,,0.00,Wunderground v.1.15,2013-04-26 07:55:00,
2013-04-26 03:04:00,61.1,56.9,30.15,SE,139,1.0,1.0,86,0.00,,,0.00,Wunderground v.1.15,2013-04-26 08:04:00,
2013-04-26 03:15:00,60.9,57.0,30.15,SE,135,0.0,0.0,87,0.00,,,0.00,Wunderground v.1.15,2013-04-26 08:15:00,
2013-04-26 03:25:00,60.8,56.9,30.14,ENE,77,0.0,0.0,87,0.00,,,0.00,Wunderground v.1.15,2013-04-26 08:25:00,
2013-04-26 03:34:00,60.7,57.1,30.14,SE,126,0.0,0.0,88,0.00,,,0.00,Wunderground v.1.15,2013-04-26 08:34:00,
2013-04-26 03:45:00,60.5,57.2,30.14,SE,135,0.0,1.0,89,0.00,,,0.00,Wunderground v.1.15,2013-04-26 08:45:00,
2013-04-26 03:54:00,60.4,57.5,30.13,SE,135,0.0,0.0,90,0.00,,,0.00,Wunderground v.1.15,2013-04-26 08:54:00,
2013-04-26 04:00:00,60.3,57.4,30.13,SE,125,0.0,0.0,90,0.00,,,0.00,Wunderground v.1.15,2013-04-26 09:00:00,
2013-04-26 04:09:00,60.1,57.5,30.12,SSE,156,0.0,0.0,91,0.00,,,0.00,Wunderground v.1.15,2013-04-26 09:09:00,
2013-04-26 04:15:00,60.0,57.4,30.12,SSE,155,0.0,0.0,91,0.00,,,0.00,Wunderground v.1.15,2013-04-26 09:15:00,
2013-04-26 04:24:00,59.9,57.6,30.12,SSE,155,0.0,0.0,92,0.00,,,0.00,Wunderground v.1.15,2013-04-26 09:24:00,
2013-04-26 04:35:00,59.9,57.6,30.11,SSE,155,0.0,0.0,92,0.00,,,0.00,Wunderground v.1.15,2013-04-26 09:35:00,
2013-04-26 04:44:00,59.8,57.8,30.11,SSE,155,0.0,0.0,93,0.00,,,0.00,Wunderground v.1.15,2013-04-26 09:44:00,
2013-04-26 04:50:00,59.8,57.8,30.11,SSE,155,0.0,0.0,93,0.00,,,0.00,Wunderground v.1.15,2013-04-26 09:50:00,
2013-04-26 04:59:00,59.8,57.8,30.11,SSE,155,0.0,0.0,93,0.00,,,0.00,Wunderground v.1.15,2013-04-26 09:59:00,
2013-04-26 05:05:00,59.7,57.7,30.11,SSE,155,0.0,0.0,93,0.00,,,0.00,Wunderground v.1.15,2013-04-26 10:05:00,
2013-04-26 05:14:00,59.6,57.9,30.11,SSE,155,0.0,0.0,94,0.00,,,0.00,Wunderground v.1.15,2013-04-26 10:14:00,
2013-04-26 05:25:00,59.6,57.9,30.12,SSE,155,0.0,1.0,94,0.00,,,0.00,Wunderground v.1.15,2013-04-26 10:25:00,
2013-04-26 05:34:00,59.5,58.1,30.11,SSE,155,0.0,0.0,95,0.00,,,0.00,Wunderground v.1.15,2013-04-26 10:34:00,
2013-04-26 05:40:00,59.6,58.2,30.11,SSE,155,0.0,0.0,95,0.00,,,0.00,Wunderground v.1.15,2013-04-26 10:40:00,
2013-04-26 05:49:00,59.6,58.2,30.11,SSW,208,0.0,0.0,95,0.00,,,0.00,Wunderground v.1.15,2013-04-26 10:49:00,
2013-04-26 05:55:00,59.7,58.3,30.10,SSW,208,0.0,0.0,95,0.00,,,0.00,Wunderground v.1.15,2013-04-26 10:55:00,
2013-04-26 06:04:00,59.7,58.3,30.10,SSW,208,0.0,0.0,95,0.00,,,0.00,Wunderground v.1.15,2013-04-26 11:04:00,
2013-04-26 06:15:00,59.7,58.3,30.10,SSW,208,0.0,0.0,95,0.00,,,0.00,Wunderground v.1.15,2013-04-26 11:15:00,
2013-04-26 06:24:00,59.7,58.3,30.11,SSW,208,0.0,0.0,95,0.00,,,0.00,Wunderground v.1.15,2013-04-26 11:24:00,
2013-04-26 06:30:00,59.8,58.7,30.11,SSW,208,0.0,0.0,96,0.00,,,0.00,Wunderground v.1.15,2013-04-26 11:30:00,
2013-04-26 06:39:00,59.8,58.7,30.11,SSW,208,0.0,0.0,96,0.00,,,0.00,Wunderground v.1.15,2013-04-26 11:39:00,
2013-04-26 06:45:00,59.9,58.8,30.12,SSW,208,0.0,0.0,96,0.00,,,0.00,Wunderground v.1.15,2013-04-26 11:45:00,
2013-04-26 06:54:00,60.0,58.9,30.11,SSW,208,0.0,0.0,96,0.00,,,0.00,Wunderground v.1.15,2013-04-26 11:54:00,
2013-04-26 07:05:00,60.2,59.1,30.12,SSW,208,0.0,0.0,96,0.00,,,0.00,Wunderground v.1.15,2013-04-26 12:05:00,
2013-04-26 07:14:00,60.4,59.3,30.12,SSW,208,0.0,0.0,96,0.00,,,0.00,Wunderground v.1.15,2013-04-26 12:14:00,
2013-04-26 07:25:00,60.6,59.7,30.12,SSW,208,0.0,0.0,97,0.00,,,0.00,Wunderground v.1.15,2013-04-26 12:25:00,
2013-04-26 07:34:00,60.8,59.9,30.12,SSW,208,0.0,0.0,97,0.00,,,0.00,Wunderground v.1.15,2013-04-26 12:34:00,
2013-04-26 07:40:00,60.9,60.0,30.12,SSW,208,0.0,0.0,97,0.00,,,0.00,Wunderground v.1.15,2013-04-26 12:40:00,
2013-04-26 07:49:00,61.1,60.2,30.12,SSW,208,0.0,0.0,97,0.00,,,0.00,Wunderground v.1.15,2013-04-26 12:49:00,
2013-04-26 08:00:00,61.3,60.4,30.13,SSW,208,0.0,0.0,97,0.00,,,0.00,Wunderground v.1.15,2013-04-26 13:00:00,
2013-04-26 08:09:00,61.5,60.6,30.13,SSW,208,0.0,0.0,97,0.00,,,0.00,Wunderground v.1.15,2013-04-26 13:09:00,
2013-04-26 08:15:00,61.7,60.8,30.13,SSW,208,0.0,0.0,97,0.00,,,0.00,Wunderground v.1.15,2013-04-26 13:15:00,
2013-04-26 08:24:00,62.0,61.1,30.13,SSW,208,0.0,0.0,97,0.00,,,0.00,Wunderground v.1.15,2013-04-26 13:24:00,
2013-04-26 08:30:00,62.2,61.3,30.13,SSW,208,0.0,0.0,97,0.00,,,0.00,Wunderground v.1.15,2013-04-26 13:30:00,
2013-04-26 08:39:00,62.7,61.8,30.13,SE,139,0.0,0.0,97,0.00,,,0.00,Wunderground v.1.15,2013-04-26 13:39:00,
2013-04-26 08:50:00,63.2,62.3,30.13,SE,139,0.0,0.0,97,0.00,,,0.00,Wunderground v.1.15,2013-04-26 13:50:00,
2013-04-26 08:59:00,63.5,62.6,30.13,SE,132,0.0,0.0,97,0.00,,,0.00,Wunderground v.1.15,2013-04-26 13:59:00,
2013-04-26 09:09:00,63.8,62.9,30.14,SE,132,0.0,0.0,97,0.00,,,0.00,Wunderground v.1.15,2013-04-26 14:09:00,
2013-04-26 09:20:00,64.0,63.1,30.14,SE,132,0.0,0.0,97,0.00,,,0.00,Wunderground v.1.15,2013-04-26 14:20:00,
2013-04-26 09:29:00,64.3,63.4,30.14,SE,132,0.0,0.0,97,0.00,,,0.00,Wunderground v.1.15,2013-04-26 14:29:00,
2013-04-26 09:40:00,64.7,64.1,30.14,SSE,162,0.0,0.0,98,0.00,,,0.00,Wunderground v.1.15,2013-04-26 14:40:00,
2013-04-26 09:49:00,65.0,64.4,30.14,SW,224,0.0,0.0,98,0.00,,,0.00,Wunderground v.1.15,2013-04-26 14:49:00,
2013-04-26 09:59:00,65.4,64.8,30.14,SE,124,0.0,0.0,98,0.00,,,0.00,Wunderground v.1.15,2013-04-26 14:59:00,
2013-04-26 10:09:00,65.7,65.1,30.15,SE,127,0.0,0.0,98,0.00,,,0.01,Wunderground v.1.15,2013-04-26 15:09:00,
2013-04-26 10:15:00,65.9,65.3,30.15,SE,127,0.0,0.0,98,0.00,,,0.01,Wunderground v.1.15,2013-04-26 15:15:00,
2013-04-26 10:24:00,66.1,65.5,30.15,ESE,103,0.0,0.0,98,0.00,,,0.01,Wunderground v.1.15,2013-04-26 15:24:00,
2013-04-26 10:30:00,66.3,65.7,30.15,ESE,103,0.0,0.0,98,0.00,,,0.01,Wunderground v.1.15,2013-04-26 15:30:00,
2013-04-26 10:39:00,66.8,66.2,30.15,ESE,103,0.0,0.0,98,0.00,,,0.01,Wunderground v.1.15,2013-04-26 15:39:00,
2013-04-26 10:45:00,66.9,66.3,30.15,ESE,103,0.0,0.0,98,0.00,,,0.01,Wunderground v.1.15,2013-04-26 15:45:00,
2013-04-26 10:54:00,67.2,66.6,30.14,SE,127,0.0,0.0,98,0.00,,,0.01,Wunderground v.1.15,2013-04-26 15:54:00,
2013-04-26 11:00:00,67.4,66.8,30.14,SE,127,0.0,0.0,98,0.00,,,0.01,Wunderground v.1.15,2013-04-26 16:00:00,
2013-04-26 11:09:00,68.1,67.5,30.14,SE,138,0.0,0.0,98,0.00,,,0.01,Wunderground v.1.15,2013-04-26 16:09:00,
2013-04-26 11:20:00,68.7,68.1,30.13,SSE,150,0.0,0.0,98,0.00,,,0.01,Wunderground v.1.15,2013-04-26 16:20:00,
2013-04-26 11:29:00,69.4,68.5,30.13,WSW,237,0.0,0.0,97,0.00,,,0.01,Wunderground v.1.15,2013-04-26 16:29:00,
2013-04-26 11:40:00,70.4,69.5,30.13,West,266,0.0,0.0,97,0.00,,,0.01,Wunderground v.1.15,2013-04-26 16:40:00,
2013-04-26 11:49:00,71.6,70.1,30.13,SW,236,0.0,1.0,95,0.00,,,0.01,Wunderground v.1.15,2013-04-26 16:49:00,
2013-04-26 11:55:00,72.6,70.5,30.13,ENE,70,1.0,2.0,93,0.00,,,0.01,Wunderground v.1.15,2013-04-26 16:55:00,
2013-04-26 12:04:00,73.6,70.2,30.13,SW,215,1.0,2.0,89,0.00,,,0.01,Wunderground v.1.15,2013-04-26 17:04:00,
2013-04-26 12:10:00,73.6,69.8,30.13,SSE,157,1.0,1.0,88,0.00,,,0.01,Wunderground v.1.15,2013-04-26 17:10:00,
2013-04-26 12:19:00,74.1,70.3,30.12,SSW,209,1.0,1.0,88,0.00,,,0.01,Wunderground v.1.15,2013-04-26 17:19:00,
2013-04-26 12:30:00,74.6,69.8,30.12,SW,231,1.0,1.0,85,0.00,,,0.01,Wunderground v.1.15,2013-04-26 17:30:00,
2013-04-26 12:39:00,74.8,69.6,30.12,SSW,203,1.0,1.0,84,0.00,,,0.01,Wunderground v.1.15,2013-04-26 17:39:00,
2013-04-26 12:45:00,75.1,69.9,30.12,SE,124,1.0,1.0,84,0.00,,,0.01,Wunderground v.1.15,2013-04-26 17:45:00,
2013-04-26 12:54:00,75.5,70.0,30.12,NW,313,1.0,2.0,83,0.00,,,0.01,Wunderground v.1.15,2013-04-26 17:54:00,
2013-04-26 13:00:00,75.7,69.5,30.12,WNW,295,1.0,1.0,81,0.00,,,0.01,Wunderground v.1.15,2013-04-26 18:00:00,
2013-04-26 13:09:00,75.5,69.6,30.11,West,266,1.0,1.0,82,0.00,,,0.01,Wunderground v.1.15,2013-04-26 18:09:00,
2013-04-26 13:19:00,75.4,69.5,30.11,South,177,1.0,1.0,82,0.00,,,0.01,Wunderground v.1.15,2013-04-26 18:19:00,
2013-04-26 13:29:00,75.2,69.3,30.11,SSE,155,2.0,2.0,82,0.00,,,0.01,Wunderground v.1.15,2013-04-26 18:29:00,
2013-04-26 13:35:00,75.2,69.3,30.11,SSW,209,2.0,2.0,82,0.00,,,0.01,Wunderground v.1.15,2013-04-26 18:35:00,
2013-04-26 13:44:00,75.3,69.8,30.11,ESE,108,1.0,2.0,83,0.00,,,0.01,Wunderground v.1.15,2013-04-26 18:44:00,
2013-04-26 13:50:00,76.0,70.1,30.11,SSW,200,1.0,1.0,82,0.00,,,0.01,Wunderground v.1.15,2013-04-26 18:50:00,
2013-04-26 13:59:00,77.2,70.5,30.11,West,263,1.0,1.0,80,0.00,,,0.01,Wunderground v.1.15,2013-04-26 18:59:00,
2013-04-26 14:10:00,77.7,71.4,30.10,SW,231,1.0,2.0,81,0.00,,,0.01,Wunderground v.1.15,2013-04-26 19:10:00,
2013-04-26 14:19:00,79.3,71.1,30.09,ESE,108,1.0,1.0,76,0.00,,,0.01,Wunderground v.1.15,2013-04-26 19:19:00,
2013-04-26 14:25:00,79.4,70.8,30.09,South,173,1.0,1.0,75,0.00,,,0.01,Wunderground v.1.15,2013-04-26 19:25:00,
2013-04-26 14:34:00,79.0,70.4,30.09,West,278,1.0,1.0,75,0.00,,,0.01,Wunderground v.1.15,2013-04-26 19:34:00,
2013-04-26 14:45:00,79.2,71.0,30.08,ESE,115,2.0,3.0,76,0.00,,,0.01,Wunderground v.1.15,2013-04-26 19:45:00,
2013-04-26 14:54:00,79.2,70.6,30.08,SW,232,1.0,2.0,75,0.00,,,0.01,Wunderground v.1.15,2013-04-26 19:54:00,
2013-04-26 15:00:00,79.0,70.4,30.08,ESE,123,1.0,1.0,75,0.00,,,0.01,Wunderground v.1.15,2013-04-26 20:00:00,
2013-04-26 15:10:00,79.3,70.7,30.08,WNW,285,1.0,1.0,75,0.00,,,0.01,Wunderground v.1.15,2013-04-26 20:10:00,
2013-04-26 15:19:00,79.6,71.0,30.08,WNW,299,2.0,2.0,75,0.00,,,0.01,Wunderground v.1.15,2013-04-26 20:19:00,
2013-04-26 15:30:00,79.7,71.1,30.08,WNW,283,1.0,1.0,75,0.00,,,0.01,Wunderground v.1.15,2013-04-26 20:30:00,
2013-04-26 15:39:00,79.8,71.2,30.07,WSW,252,1.0,1.0,75,0.00,,,0.01,Wunderground v.1.15,2013-04-26 20:39:00,
2013-04-26 15:49:00,79.7,71.1,30.07,WSW,245,1.0,1.0,75,0.00,,,0.01,Wunderground v.1.15,2013-04-26 20:49:00,
2013-04-26 15:59:00,80.0,71.0,30.06,WSW,252,1.0,3.0,74,0.00,,,0.01,Wunderground v.1.15,2013-04-26 20:59:00,
2013-04-26 16:05:00,79.6,70.6,30.06,SSW,194,1.0,3.0,74,0.00,,,0.01,Wunderground v.1.15,2013-04-26 21:05:00,
2013-04-26 16:14:00,79.5,71.3,30.06,ENE,69,1.0,2.0,76,0.00,,,0.01,Wunderground v.1.15,2013-04-26 21:14:00,
2013-04-26 16:20:00,79.7,71.1,30.05,East,91,1.0,2.0,75,0.00,,,0.01,Wunderground v.1.15,2013-04-26 21:20:00,
2013-04-26 16:29:00,79.2,71.0,30.05,ESE,121,1.0,2.0,76,0.00,,,0.01,Wunderground v.1.15,2013-04-26 21:29:00,
2013-04-26 16:40:00,78.2,70.8,30.04,ESE,103,1.0,2.0,78,0.00,,,0.01,Wunderground v.1.15,2013-04-26 21:40:00,
2013-04-26 16:49:00,77.8,70.8,30.05,ESE,106,1.0,1.0,79,0.00,,,0.01,Wunderground v.1.15,2013-04-26 21:49:00,
2013-04-26 16:55:00,77.7,71.0,30.04,SE,124,1.0,1.0,80,0.00,,,0.01,Wunderground v.1.15,2013-04-26 21:55:00,
2013-04-26 17:04:00,77.7,71.0,30.04,East,80,1.0,1.0,80,0.00,,,0.01,Wunderground v.1.15,2013-04-26 22:04:00,
2013-04-26 17:15:00,77.4,70.7,30.04,East,94,1.0,1.0,80,0.00,,,0.01,Wunderground v.1.15,2013-04-26 22:15:00,
2013-04-26 17:24:00,76.8,70.5,30.04,ESE,121,2.0,4.0,81,0.00,,,0.01,Wunderground v.1.15,2013-04-26 22:24:00,
2013-04-26 17:34:00,76.3,70.0,30.04,ESE,108,2.0,2.0,81,0.00,,,0.01,Wunderground v.1.15,2013-04-26 22:34:00,
2013-04-26 17:45:00,76.7,70.8,30.03,ENE,60,1.0,2.0,82,0.00,,,0.01,Wunderground v.1.15,2013-04-26 22:45:00,
2013-04-26 17:54:00,77.2,70.5,30.04,ESE,118,1.0,1.0,80,0.00,,,0.01,Wunderground v.1.15,2013-04-26 22:54:00,
2013-04-26 18:04:00,77.0,71.1,30.04,East,86,0.0,1.0,82,0.00,,,0.01,Wunderground v.1.15,2013-04-26 23:04:00,
2013-04-26 18:10:00,76.4,70.9,30.04,SE,132,1.0,1.0,83,0.00,,,0.01,Wunderground v.1.15,2013-04-26 23:10:00,
2013-04-26 18:19:00,75.7,70.5,30.04,SE,131,0.0,0.0,84,0.00,,,0.01,Wunderground v.1.15,2013-04-26 23:19:00,
2013-04-26 18:25:00,75.5,70.7,30.03,ESE,108,0.0,0.0,85,0.00,,,0.01,Wunderground v.1.15,2013-04-26 23:25:00,
2013-04-26 18:34:00,75.3,70.5,30.03,ESE,110,0.0,1.0,85,0.00,,,0.01,Wunderground v.1.15,2013-04-26 23:34:00,
2013-04-26 18:40:00,75.4,70.2,30.03,ESE,118,0.0,0.0,84,0.00,,,0.01,Wunderground v.1.15,2013-04-26 23:40:00,
2013-04-26 18:49:00,75.7,70.2,30.03,ESE,103,1.0,1.0,83,0.00,,,0.01,Wunderground v.1.15,2013-04-26 23:49:00,
2013-04-26 19:09:00,76.0,69.7,30.03,ESE,117,0.0,0.0,81,0.00,,,0.01,Wunderground v.1.15,2013-04-27 00:09:00,
2013-04-26 19:15:00,76.0,70.1,30.03,East,87,0.0,2.0,82,0.00,,,0.01,Wunderground v.1.15,2013-04-27 00:15:00,
2013-04-26 19:24:00,75.4,70.2,30.03,NE,54,0.0,0.0,84,0.00,,,0.01,Wunderground v.1.15,2013-04-27 00:24:00,
2013-04-26 19:30:00,75.1,70.3,30.03,ENE,68,0.0,1.0,85,0.00,,,0.01,Wunderground v.1.15,2013-04-27 00:30:00,
2013-04-26 19:39:00,74.7,69.9,30.03,ENE,68,0.0,0.0,85,0.00,,,0.01,Wunderground v.1.15,2013-04-27 00:39:00,
2013-04-26 19:45:00,74.7,69.5,30.03,East,98,0.0,1.0,84,0.00,,,0.01,Wunderground v.1.15,2013-04-27 00:45:00,
2013-04-26 19:54:00,75.2,69.3,30.03,NW,310,1.0,1.0,82,0.00,,,0.01,Wunderground v.1.15,2013-04-27 00:54:00,
2013-04-26 20:05:00,75.4,69.2,30.03,East,83,1.0,1.0,81,0.00,,,0.01,Wunderground v.1.15,2013-04-27 01:05:00,
2013-04-26 20:14:00,75.4,69.5,30.04,East,101,1.0,2.0,82,0.00,,,0.01,Wunderground v.1.15,2013-04-27 01:14:00,
2013-04-26 20:20:00,75.4,69.5,30.04,ESE,120,1.0,1.0,82,0.00,,,0.01,Wunderground v.1.15,2013-04-27 01:20:00,
2013-04-26 20:29:00,75.3,69.4,30.05,ESE,105,1.0,2.0,82,0.00,,,0.01,Wunderground v.1.15,2013-04-27 01:29:00,
2013-04-26 20:35:00,75.2,69.7,30.05,East,98,1.0,2.0,83,0.00,,,0.01,Wunderground v.1.15,2013-04-27 01:35:00,
2013-04-26 20:44:00,74.9,69.4,30.05,ESE,105,1.0,1.0,83,0.00,,,0.01,Wunderground v.1.15,2013-04-27 01:44:00,
2013-04-26 20:55:00,74.7,69.5,30.05,East,90,1.0,1.0,84,0.00,,,0.01,Wunderground v.1.15,2013-04-27 01:55:00,
2013-04-26 21:04:00,74.5,69.3,30.05,SE,128,1.0,1.0,84,0.00,,,0.01,Wunderground v.1.15,2013-04-27 02:04:00,
2013-04-26 21:10:00,74.3,69.1,30.05,East,80,1.0,2.0,84,0.00,,,0.01,Wunderground v.1.15,2013-04-27 02:10:00,
2013-04-26 21:19:00,74.1,69.3,30.06,ESE,120,1.0,2.0,85,0.00,,,0.01,Wunderground v.1.15,2013-04-27 02:19:00,
2013-04-26 21:30:00,73.9,69.1,30.06,ESE,110,1.0,1.0,85,0.00,,,0.01,Wunderground v.1.15,2013-04-27 02:30:00,
2013-04-26 21:39:00,73.7,68.9,30.06,East,93,1.0,1.0,85,0.00,,,0.01,Wunderground v.1.15,2013-04-27 02:39:00,
2013-04-26 21:45:00,73.5,69.1,30.06,East,92,1.0,1.0,86,0.00,,,0.01,Wunderground v.1.15,2013-04-27 02:45:00,
2013-04-26 21:54:00,73.2,68.8,30.06,ESE,113,1.0,3.0,86,0.00,,,0.01,Wunderground v.1.15,2013-04-27 02:54:00,
2013-04-26 22:00:00,73.0,68.6,30.06,ESE,122,1.0,2.0,86,0.00,,,0.01,Wunderground v.1.15,2013-04-27 03:00:00,
2013-04-26 22:09:00,72.7,68.6,30.07,South,172,1.0,1.0,87,0.00,,,0.01,Wunderground v.1.15,2013-04-27 03:09:00,
2013-04-26 22:20:00,72.5,68.7,30.07,ESE,115,1.0,1.0,88,0.00,,,0.01,Wunderground v.1.15,2013-04-27 03:20:00,
2013-04-26 22:29:00,72.5,68.7,30.08,SE,136,1.0,1.0,88,0.00,,,0.01,Wunderground v.1.15,2013-04-27 03:29:00,
2013-04-26 22:35:00,72.5,68.7,30.08,SE,131,1.0,1.0,88,0.00,,,0.01,Wunderground v.1.15,2013-04-27 03:35:00,
2013-04-26 22:44:00,72.4,68.6,30.08,ESE,108,1.0,1.0,88,0.00,,,0.01,Wunderground v.1.15,2013-04-27 03:44:00,
2013-04-26 22:50:00,72.3,68.5,30.08,SE,131,1.0,1.0,88,0.00,,,0.01,Wunderground v.1.15,2013-04-27 03:50:00,
2013-04-26 22:59:00,72.2,68.4,30.08,East,83,1.0,1.0,88,0.00,,,0.01,Wunderground v.1.15,2013-04-27 03:59:00,
2013-04-26 23:04:00,72.2,68.4,30.08,ESE,123,1.0,1.0,88,0.00,,,0.01,Wunderground v.1.15,2013-04-27 04:04:00,
2013-04-26 23:10:00,72.1,68.3,30.08,East,81,0.0,1.0,88,0.00,,,0.01,Wunderground v.1.15,2013-04-27 04:10:00,
2013-04-26 23:19:00,71.9,68.5,30.08,ESE,104,1.0,1.0,89,0.00,,,0.01,Wunderground v.1.15,2013-04-27 04:19:00,
2013-04-26 23:25:00,71.8,68.4,30.08,SE,134,1.0,1.0,89,0.00,,,0.01,Wunderground v.1.15,2013-04-27 04:25:00,
2013-04-26 23:30:00,71.7,68.3,30.08,SE,132,1.0,2.0,89,0.00,,,0.01,Wunderground v.1.15,2013-04-27 04:30:00,
2013-04-26 23:40:00,71.7,68.3,30.08,East,82,1.0,2.0,89,0.00,,,0.01,Wunderground v.1.15,2013-04-27 04:40:00,
2013-04-26 23:49:00,71.6,68.2,30.07,SSW,198,1.0,1.0,89,0.00,,,0.01,Wunderground v.1.15,2013-04-27 04:49:00,